Location: Napa Soda Springs
(38.3907°N, 122.2794°W)
Time: 07:33:06
(UTC+00:00)

CZ-4B R/B - Pass Details

Date: 29 October 2020
Orbit: 489 x 649 km, 97.9° (Epoch: 02 December)

Event Time Altitude Azimuth Distance (km) Brightness Sun altitude
Rises 14:00:46 0° 360° (N) 2,772 6.3 -6.9°
Reaches altitude 10° 14:03:04 10° 349° (N) 1,898 5.3 -6.5°
Maximum altitude 14:06:39 29° 289° (WNW) 1,096 3.8 -5.8°
Drops below altitude 10° 14:10:21 10° 229° (SW) 1,967 5.3 -5.1°
Sets 14:12:46 0° 218° (SW) 2,891 6.2 -4.7°
